Overview Statistics Trail Chart Weather Telemetry Raw packets
 

This is the latest recevied weather packets stored in our database for station/object IZ1UQG-N2. If no packets are shown the sender has not sent any weather packets the latest 10 day(s).

<< 14 15 16 17 18 19 20 >>
Time Temp. Humidity Pressure Rain* Wind** Luminosity Snow
1788699164 29.44° C 51% 1019.6 hPa 0 mm - 629 W/m² -
1788699104 29.44° C 51% 1019.6 hPa 0 mm - 640 W/m² -
1788699044 29.44° C 51% 1019.6 hPa 0 mm - 642 W/m² -
1788698986 29.44° C 51% 1019.7 hPa 0 mm - 647 W/m² -
1788698925 28.89° C 51% 1019.7 hPa 0 mm - 649 W/m² -
1788698865 28.89° C 51% 1019.6 hPa 0 mm - 652 W/m² -
1788698805 28.89° C 51% 1019.6 hPa 0 mm - 652 W/m² -
1788698745 29.44° C 50% 1019.7 hPa 0 mm - 650 W/m² -
1788698685 29.44° C 50% 1019.7 hPa 0 mm - 652 W/m² -
1788698624 29.44° C 50% 1019.7 hPa 0 mm - 652 W/m² -
1788698564 29.44° C 51% 1019.7 hPa 0 mm - 652 W/m² -
1788698504 28.89° C 50% 1019.8 hPa 0 mm - 652 W/m² -
1788698446 29.44° C 50% 1019.6 hPa 0 mm - 654 W/m² -
1788698386 29.44° C 50% 1019.7 hPa 0 mm - 654 W/m² -
1788698325 29.44° C 50% 1019.8 hPa 0 mm - 657 W/m² -
1788698265 29.44° C 51% 1019.7 hPa 0 mm - 654 W/m² -
1788698205 28.89° C 51% 1019.7 hPa 0 mm - 656 W/m² -
1788698145 28.89° C 50% 1019.6 hPa 0 mm - 654 W/m² -
1788698084 29.44° C 50% 1019.6 hPa 0 mm - 654 W/m² -
1788698024 29.44° C 50% 1019.7 hPa 0 mm - 652 W/m² -
1788697964 29.44° C 50% 1019.7 hPa 0 mm - 659 W/m² -
1788697906 29.44° C 50% 1019.7 hPa 0 mm - 661 W/m² -
1788697846 29.44° C 50% 1019.6 hPa 0 mm - 661 W/m² -
1788697786 29.44° C 50% 1019.7 hPa 0 mm - 661 W/m² -
1788697725 29.44° C 50% 1019.8 hPa 0 mm - 663 W/m² -

* Rain latest hour (hover to see other rain measurements)
** Current wind speed in m/s (hover to see current wind gust speed)